FW0051 Weather Reports


time (UTC)temp
C
wind
direction
speed
KPH
gust
KPH
rain 1hr
cm
rain 24hr
cm
rain mn
cm
humidity
%
barometer
mb
20260507141511 5 211 6.4 14.5 0.00 0.05 0.03 95 1015.2
20260507140012 5 195 16.1 25.7 0.00 0.05 0.03 94 1015.1
20260507134511 5 188 12.9 19.3 0.00 0.05 0.03 92 1015.0
20260507133012 6 191 16.1 27.4 0.00 0.05 0.03 93 1015.2
20260507131512 6 195 17.7 25.7 0.00 0.08 0.03 92 1015.1
20260507130012 6 195 17.7 27.4 0.00 0.15 0.03 90 1014.9
20260507124512 5 179 9.7 22.5 0.00 0.15 0.03 94 1015.0
20260507123012 5 191 9.7 16.1 0.00 0.15 0.03 96 1015.2
20260507121513 5 192 11.3 22.5 0.00 0.15 0.03 96 1015.2
20260507120019 5 194 17.7 27.4 0.00 0.15 0.03 94 1014.9
20260507114518 5 183 20.9 35.4 0.00 0.15 0.03 94 1014.9
20260507113018 5 166 24.1 35.4 0.00 0.15 0.03 97 1014.9
20260507111518 5 179 20.9 33.8 0.00 0.15 0.03 98 1015.2
20260507110018 4 183 19.3 35.4 0.00 0.15 0.03 98 1014.9
20260507104517 5 184 19.3 33.8 0.03 0.15 0.03 97 1014.9
20260507103017 5 181 19.3 33.8 0.03 0.15 0.03 94 1014.8
20260507101517 5 169 17.7 33.8 0.03 0.15 0.03 96 1015.1
20260507100017 5 185 9.7 25.7 0.03 0.18 0.03 96 1015.2
20260507094517 5 178 16.1 27.4 0.00 0.15 0.00 96 1015.1
20260507093017 5 194 14.5 20.9 0.00 0.15 0.00 96 1015.0
20260507091520 5 185 11.3 22.5 0.00 0.15 0.00 94 1014.8
20260507090017 5 173 9.7 17.7 0.00 0.15 0.00 95 1014.9
20260507084517 5 162 4.8 16.1 0.00 0.18 0.00 95 1014.8
20260507083017 5 201 3.2 8.0 0.00 0.18 0.00 94 1014.6
20260507081517 5 166 6.4 14.5 0.00 0.18 0.00 93 1014.5
20260507080017 4 182 3.2 9.7 0.00 0.18 0.00 94 1014.4
20260507074516 4 175 8.0 14.5 0.00 0.18 0.00 94 1014.2
20260507073016 4 182 6.4 16.1 0.00 0.18 0.00 93 1014.2
20260507070016 5 218 0.0 3.2 0.00 0.18 0.00 89 1013.9
20260507064516 4 0 0.0 0.0 0.00 0.20 0.00 90 1013.8
20260507061515 3 227 0.0 3.2 0.00 0.25 0.00 88 1013.6
20260507054516 3 226 9.7 14.5 0.00 0.36 0.00 87 1013.3
20260507053016 3 226 16.1 22.5 0.00 0.41 0.00 88 1013.2
20260507050016 2 227 17.7 20.9 0.00 0.48 0.00 92 1012.8
20260507044515 2 223 16.1 19.3 0.00 0.51 0.00 96 1012.7
20260507043014 2 223 16.1 19.3 0.00 0.51 0.00 98 1012.7
20260507041514 2 223 14.5 17.7 0.00 0.51 0.00 99 1012.5
20260507040015 2 222 12.9 16.1 0.00 0.51 0.00 99 1012.4
20260507034514 2 224 12.9 19.3 0.00 0.51 0.00 99 1012.4
20260507033017 2 217 9.7 14.5 0.00 0.51 0.00 99 1012.3
20260507031514 2 207 9.7 14.5 0.00 0.51 0.00 99 1012.4
20260507024514 2 200 9.7 17.7 0.00 0.51 0.00 99 1012.5
20260507023014 2 199 9.7 20.9 0.00 0.51 0.00 99 1012.4
20260507020014 2 193 12.9 16.1 0.00 0.51 0.00 99 1012.5
20260507014514 3 207 14.5 20.9 0.00 0.51 0.00 99 1012.5
20260507013013 2 208 17.7 24.1 0.00 0.51 0.00 99 1012.5
20260507011520 2 197 8.0 14.5 0.00 0.51 0.00 99 1012.6
20260507010020 2 187 8.0 12.9 0.00 0.51 0.00 99 1012.7
20260507004518 3 170 14.5 17.7 0.00 0.51 0.00 99 1012.7
20260507003019 2 187 11.3 14.5 0.00 0.51 0.00 99 1012.6
20260507001518 2 171 16.1 22.5 0.00 0.51 0.00 99 1012.7
20260507000019 2 158 12.9 17.7 0.00 0.51 0.00 99 1012.7
20260506234518 2 147 14.5 19.3 0.00 0.51 0.00 99 1012.8
20260506233018 2 146 16.1 19.3 0.00 0.51 0.00 99 1012.6
20260506231518 2 164 17.7 25.7 0.00 0.51 0.00 99 1012.6
20260506230018 2 177 17.7 27.4 0.00 0.51 0.00 99 1012.8
20260506224518 2 170 17.7 33.8 0.00 0.51 0.00 99 1012.9
20260506223017 3 149 12.9 19.3 0.00 0.51 0.00 99 1012.8
20260506221517 3 157 17.7 25.7 0.00 0.51 0.00 99 1012.8
20260506220019 3 157 17.7 27.4 0.00 0.51 0.00 99 1012.7
20260506213017 3 170 24.1 32.2 0.00 0.51 0.51 99 1013.0
20260506211517 4 176 22.5 37.0 0.00 0.51 0.51 99 1013.1
20260506210017 3 178 24.1 38.6 0.00 0.51 0.51 99 1012.5
20260506204520 4 179 24.1 40.2 0.00 0.51 0.51 99 1012.9
20260506203016 4 171 27.4 43.5 0.00 0.51 0.51 99 1012.8
20260506201516 5 165 27.4 45.1 0.00 0.51 0.51 99 1012.7
20260506200017 5 156 27.4 45.1 0.00 0.51 0.51 99 1012.5
20260506194516 5 151 29.0 41.8 0.00 0.51 0.51 99 1012.3
20260506191516 5 154 27.4 40.2 0.00 0.53 0.51 99 1012.1
20260506190018 5 153 24.1 37.0 0.00 0.53 0.51 99 1012.1
20260506184516 5 158 29.0 38.6 0.05 0.53 0.51 99 1012.0
20260506183015 5 149 22.5 35.4 0.05 0.53 0.51 99 1012.0
20260506181516 5 160 30.6 48.3 0.05 0.56 0.51 99 1011.9
20260506180016 5 127 33.8 49.9 0.05 0.56 0.51 99 1011.7
20260506174515 5 105 12.9 27.4 0.00 0.51 0.48 99 1011.1
20260506173016 5 163 24.1 46.7 0.00 0.51 0.48 99 1011.5
20260506171515 5 150 24.1 37.0 0.00 0.51 0.48 99 1011.4
20260506163017 5 169 22.5 33.8 0.00 0.53 0.48 99 1011.1
20260506161516 5 181 17.7 33.8 0.00 0.53 0.48 99 1011.1
20260506160015 5 172 27.4 53.1 0.00 0.53 0.48 99 1011.1
20260506151515 5 190 25.7 41.8 0.00 0.58 0.48 99 1011.2
20260506150015 5 175 25.7 43.5 0.00 0.61 0.48 99 1011.2
20260506143015 5 187 16.1 29.0 0.00 0.64 0.48 99 1011.3